Погода в Садовом

Россия / Еврейская автономная область     47°45′48″N   131°26′41″E
темп.,
°C
ветер,
м/с
пор.,
м/с
влажн.,
%
обл.,
%
осадки,
мм/ч
давл.,
гПа
погр.,
м
25 января, вт
вт2501:00−19зсз379267 0.0 102479
04:00−23с2296100 0.0 102519
07:00−24св119893 0.0 102512
10:00−23всв119888 0.0 102529
13:00−18всв1189100 0.0 1024115
16:00−16в2288100 0.0 1023113
19:00−20вюв2298100 0.0 102310
22:00−22всв009999 0.0 10239
26 января, ср
ср2601:00−21юз0099100 0.0 102311
04:00−21ююз1199100 0.0 10239
07:00−19зюз1298100 0.0 102337
10:00−17зсз239386 0.0 102378
13:00−12сз3684100 0.0 1023390
16:00−10сз5983100 0.0 1023619
19:00−13сз51082100 0.0 1024305
22:00−16зсз512845 0.0 1025267
27 января, чт
чт2701:00−17зсз612865 0.0 1025256
04:00−18зсз613875 0.0 1026285
07:00−18зсз614855 0.0 1025323
10:00−19зсз514905 0.0 1026319
13:00−14зсз612845 0.0 1025512
16:00−13сз510805 0.0 1024560
19:00−17сз38875 0.0 1024103
22:00−21з36955 0.0 102467
28 января, пт
пт2801:00−22з46925 0.0 102376
04:00−24з3310038 0.0 102135
07:00−23з35968 0.0 102048
10:00−18з3891100 0.0 1020174
13:00−14сз61280100 0.0 1018780
16:00−12сз597897 0.0 10171098
19:00−17сз3887100 0.0 1017123
22:00−17сз6128278 0.0 1017520
29 января, сб
сб2901:00−19зсз512865 0.0 1017296
04:00−21зсз410925 0.0 1017150
07:00−20зсз5118846 0.0 1016264
10:00−21зсз715835 0.0 1017456
13:00−18зсз713805 0.0 1016616
16:00−16сз613765 0.0 1016678
19:00−19сз5138170 0.0 1016299
22:00−18сз715807 0.0 1017547